GEO-KOMPSAT-2A

Last updated on Sun Jun 21 2026 00:02:47 GMT+0000 (Coordinated Universal Time)

1 43823U 18100A 26171.41741235 -.00000348 00000+0 00000+0 0 9998 2 43823 0.0473 151.2642 0002170 295.2838 100.6088 1.00272261 27669
UTC large
Height (km)
Speed (km/s)
/
Latitude / Longitude
Inclination (degrees)
Orbital Period (minutes)
Azimuth
Elevation
Range (km)
Doppler Factor

Next 0 passes for location: London (51.5072 / 0.1276)

No passes found over London.
GEO-KOMPSAT-2A